Showing default

NAVSTAR 78 (USA 293), 44506

Orbit data source: Space-Track

NAVSTAR 78 (USA 293), 44506 is a payload satellite owned by USAF SMC (US) in MEO that was launched on Thu, 22 Aug 2019 UTC via a DELTA 4M+(4,2) launch vehicle from the Air Force Eastern Test Range (AFETR). Payload-class satellites include a variety of spacecraft equipped with specific instruments for various scientific and technological missions. These include communications satellites like Starlink; space stations such as the ISS; scientific satellites like the Hubble; Earth observation satellites from companies like Planet Labs, Umbra, and HawkEye 360; GPS; miniature CubeSats for education and research; and military/defense satellites.

Loading next visibility...
Identifier
44506, 2019-056A
Orbit
MEO
Country
Flag of USUS
Related business
Manufacturer
LMSS Denver
Mission
Operational Defense Navigation
Bus & Motor
A2100, LEROS-1C?
Mass
4,400 kg wet, ~2,160 kg dry
Launch date (UTC)
2019-08-22 (7 years ago)
Launch vehicle
DELTA 4M+(4,2)
Launch site
Air Force Eastern Test Range (AFETR)
Object type
Payload
Rocket body
Debris
Shape & HBR
Box + 2 Pan, 7.0 m
Radar Cross Section
13.646 m², Large (>1 m²)

Expand to show TLE details & history
Last TLE update: 3 days ago

TLE from 3 days ago
0 NAVSTAR 78 (USA 293)
1 44506U 19056A   26170.88008800 -.00000092  00000-0  00000-0 0  9990
2 44506  55.6357 331.0347 0062145 197.6254 334.2547  2.00569711 50122
Epoch: 2026-06-19T21:07Z
TLE epoch observation values (Epoch: 2026-06-19T21:07:19.603Z)
Latitude
6.91282°
Longitude
-78.66256°
Altitude
20,033.09 km
Speed
3.896 km/s
True Right ascension
09h 45m 05s
True Declination
6° 54' 06"
Sunlit
Object was in daylight at epoch
Visualization orbit readout
Latitude
Unknown
Longitude
Unknown
Altitude
Unknown
Speed
Unknown
Apparent Right ascension
Unknown
Apparent Declination
Unknown
Sunlit
N/A
Visualization observer readout
Local Sidereal Time
21:29:17
Azimuth
Unknown
Elevation
Unknown
Doppler factor
Unknown
Orbital elements
Apogee altitude
20,346.707 km
Perigee altitude
20,016.596 km
Semi-major axis
26,559.788 km
Eccentricity
0.00621
Inclination
55.6357°
RAAN
331.0347°
Arg. of periapsis
197.6254°
True anomaly
333.94319°
Mean anomaly
334.2547°
Eccentric anomaly
334.09917°
Mean motion
0.50143 °/min
Orbital period
717.95 mins
BSTAR
0
Loading maneuver chart data...
Computing Atmospheric mass density...
Loading historical data...
Loading historical data...
Loading historical data...
Loading historical data...
Loading historical data...
Loading historical data...
Loading historical data...
Other satellites on launch #56 in the year 2019 (2019-08-22 UTC)

Documentation

Showing up to 5 results
|